PPCOB EGGD-EGPO

Flight info

Callsign PPCOB
Flight time 1h 16m
Altitude 26000
Route BCN P69 EXBUM/N0447F280 P69 DIZIM N864 KISWO/N0422F240 N864 TLA N601 GRICE DCT STN
Aircraft CL60/M-SBDE1E2E3FGHIJ1J4J5J7M3RWXYZ/LB1V1D1

Departure

Time 2026-04-21 21:13
Airport Bristol Airport (EGGD)

Arrival

Time 2026-04-21 22:29
Airport Stornoway Airport (EGPO)
Time Latitude Longitude Altitude Speed Heading
2026-04-21 20:34 51.37904 -2.71067 608 ft 0 kts 61°
2026-04-21 21:01 51.37904 -2.71066 609 ft 0 kts 61°
2026-04-21 21:02 51.37910 -2.71048 609 ft 0 kts 64°
2026-04-21 21:03 51.37916 -2.71030 609 ft 3 kts 56°
2026-04-21 21:03 51.37925 -2.71010 609 ft 2 kts 61°
2026-04-21 21:04 51.37925 -2.71009 609 ft 0 kts 63°
2026-04-21 21:06 51.37926 -2.71008 609 ft 1 kts 64°
2026-04-21 21:06 51.37932 -2.70995 609 ft 3 kts 25°
2026-04-21 21:07 51.37986 -2.70990 609 ft 13 kts 14°
2026-04-21 21:07 51.38105 -2.70921 609 ft 21 kts 20°
2026-04-21 21:07 51.38254 -2.70835 607 ft 24 kts 24°
2026-04-21 21:07 51.38279 -2.70816 607 ft 0 kts 25°
2026-04-21 21:08 51.38309 -2.70792 607 ft 12 kts 29°
2026-04-21 21:08 51.38380 -2.70738 607 ft 0 kts 16°
2026-04-21 21:09 51.38404 -2.70727 606 ft 9 kts 17°
2026-04-21 21:09 51.38472 -2.70764 604 ft 14 kts 270°
2026-04-21 21:09 51.38463 -2.70956 603 ft 19 kts 266°
2026-04-21 21:09 51.38454 -2.71190 603 ft 22 kts 266°
2026-04-21 21:10 51.38450 -2.71306 604 ft 5 kts 266°
2026-04-21 21:10 51.38444 -2.71456 604 ft 19 kts 266°
2026-04-21 21:10 51.38438 -2.71638 604 ft 11 kts 265°
2026-04-21 21:10 51.38431 -2.71817 607 ft 19 kts 267°
2026-04-21 21:11 51.38430 -2.72081 609 ft 28 kts 265°
2026-04-21 21:11 51.38416 -2.72429 616 ft 26 kts 265°
2026-04-21 21:11 51.38403 -2.72758 615 ft 31 kts 267°
2026-04-21 21:11 51.38388 -2.73131 605 ft 26 kts 266°
2026-04-21 21:12 51.38346 -2.73329 599 ft 16 kts 215°
2026-04-21 21:12 51.38235 -2.73324 600 ft 11 kts 155°
2026-04-21 21:12 51.38213 -2.73259 604 ft 0 kts 85°
2026-04-21 21:13 51.38232 -2.72942 617 ft 83 kts 84°
2026-04-21 21:13 51.38292 -2.71539 913 ft 151 kts 82°
2026-04-21 21:13 51.38414 -2.69902 2078 ft 155 kts 82°
2026-04-21 21:14 51.38591 -2.68034 2814 ft 197 kts 83°
2026-04-21 21:14 51.38732 -2.65938 3435 ft 167 kts 89°
2026-04-21 21:14 51.38758 -2.64256 3658 ft 135 kts 90°
2026-04-21 21:14 51.38776 -2.62832 3719 ft 123 kts 90°
2026-04-21 21:15 51.38793 -2.61482 3712 ft 120 kts 90°
2026-04-21 21:15 51.38809 -2.60128 3653 ft 119 kts 90°
2026-04-21 21:15 51.38825 -2.58812 3614 ft 117 kts 90°
2026-04-21 21:15 51.38847 -2.57438 3580 ft 136 kts 86°
2026-04-21 21:16 51.39341 -2.55968 3569 ft 167 kts 46°
2026-04-21 21:16 51.40387 -2.55038 3879 ft 181 kts 28°
2026-04-21 21:16 51.41776 -2.54595 4292 ft 235 kts
2026-04-21 21:16 51.43498 -2.55221 4827 ft 276 kts 336°
2026-04-21 21:17 51.44922 -2.57469 5493 ft 297 kts 306°
2026-04-21 21:17 51.46011 -2.60280 6058 ft 301 kts 304°
2026-04-21 21:17 51.47129 -2.63171 6247 ft 301 kts 304°
2026-04-21 21:17 51.48241 -2.65993 6294 ft 299 kts 305°
2026-04-21 21:18 51.49368 -2.68814 6268 ft 298 kts 306°
2026-04-21 21:18 51.50489 -2.71602 6297 ft 298 kts 306°
2026-04-21 21:18 51.51612 -2.74390 6279 ft 297 kts 306°
2026-04-21 21:18 51.52729 -2.77159 6284 ft 297 kts 306°
2026-04-21 21:19 51.53857 -2.79950 6473 ft 295 kts 306°
2026-04-21 21:19 51.54990 -2.82752 6832 ft 299 kts 306°
2026-04-21 21:19 51.56137 -2.85581 7185 ft 301 kts 306°
2026-04-21 21:19 51.57274 -2.88387 7533 ft 302 kts 306°
2026-04-21 21:20 51.58411 -2.91195 8095 ft 300 kts 306°
2026-04-21 21:20 51.59553 -2.94012 8826 ft 303 kts 306°
2026-04-21 21:20 51.60714 -2.96876 9559 ft 307 kts 306°
2026-04-21 21:20 51.61880 -2.99750 10284 ft 309 kts 306°
2026-04-21 21:21 51.63052 -3.02644 11011 ft 310 kts 306°
2026-04-21 21:21 51.64217 -3.05520 11727 ft 311 kts 306°
2026-04-21 21:21 51.65399 -3.08442 12456 ft 312 kts 306°
2026-04-21 21:21 51.66583 -3.11372 13173 ft 313 kts 306°
2026-04-21 21:22 51.67761 -3.14288 13906 ft 313 kts 306°
2026-04-21 21:22 51.68953 -3.17241 14636 ft 315 kts 305°
2026-04-21 21:22 51.70134 -3.20167 15356 ft 315 kts 305°
2026-04-21 21:22 51.71330 -3.23121 16071 ft 314 kts 307°
2026-04-21 21:23 51.72807 -3.25642 16803 ft 310 kts 326°
2026-04-21 21:23 51.74726 -3.27148 17536 ft 311 kts 344°
2026-04-21 21:23 51.76838 -3.27992 18241 ft 315 kts 346°
2026-04-21 21:23 51.79034 -3.28839 18599 ft 338 kts 346°
2026-04-21 21:24 51.81370 -3.29752 19102 ft 355 kts 346°
2026-04-21 21:24 51.83839 -3.30718 19640 ft 369 kts 345°
2026-04-21 21:24 51.86360 -3.31707 20168 ft 381 kts 345°
2026-04-21 21:24 51.88970 -3.32733 20697 ft 390 kts 345°
2026-04-21 21:25 51.91620 -3.33777 21227 ft 396 kts 345°
2026-04-21 21:25 51.94285 -3.34829 21751 ft 399 kts 345°
2026-04-21 21:25 51.96995 -3.35902 22286 ft 400 kts 345°
2026-04-21 21:25 51.99695 -3.36974 22818 ft 402 kts 344°
2026-04-21 21:26 52.02407 -3.38053 23347 ft 405 kts 344°
2026-04-21 21:26 52.05157 -3.39149 23884 ft 408 kts 344°
2026-04-21 21:26 52.07906 -3.40247 24422 ft 411 kts 344°
2026-04-21 21:26 52.10692 -3.41361 24963 ft 413 kts 343°
2026-04-21 21:27 52.13514 -3.42493 25502 ft 416 kts 343°
2026-04-21 21:27 52.16309 -3.43615 26030 ft 419 kts 343°
2026-04-21 21:27 52.19141 -3.44754 26557 ft 421 kts 343°
2026-04-21 21:27 52.21990 -3.45902 27088 ft 423 kts 343°
2026-04-21 21:28 52.24887 -3.47071 27623 ft 424 kts 343°
2026-04-21 21:28 52.27744 -3.48226 28121 ft 426 kts 343°
2026-04-21 21:28 52.33605 -3.50603 28298 ft 440 kts 343°
2026-04-21 21:29 52.36568 -3.51804 28290 ft 440 kts 343°
2026-04-21 21:29 52.42466 -3.54200 28301 ft 433 kts 343°
2026-04-21 21:30 52.48340 -3.56595 28303 ft 432 kts 343°
2026-04-21 21:30 52.54146 -3.58970 28291 ft 432 kts 343°
2026-04-21 21:31 52.59977 -3.61363 28280 ft 432 kts 343°
2026-04-21 21:31 52.65808 -3.63762 28295 ft 431 kts 343°
2026-04-21 21:32 52.71619 -3.66160 28285 ft 431 kts 342°
2026-04-21 21:32 52.77419 -3.68559 28301 ft 430 kts 342°
2026-04-21 21:33 52.83219 -3.70966 28299 ft 430 kts 342°
2026-04-21 21:33 52.89035 -3.73386 28305 ft 429 kts 342°
2026-04-21 21:34 52.94818 -3.75798 28310 ft 428 kts 342°
2026-04-21 21:34 53.00597 -3.78216 28318 ft 428 kts 342°
2026-04-21 21:35 53.06363 -3.80636 28334 ft 428 kts 342°
2026-04-21 21:35 53.12151 -3.83071 28338 ft 428 kts 342°
2026-04-21 21:36 53.17916 -3.85504 28343 ft 429 kts 342°
2026-04-21 21:36 53.23717 -3.87958 28347 ft 429 kts 342°
2026-04-21 21:37 53.29504 -3.90412 28359 ft 428 kts 342°
2026-04-21 21:37 53.35225 -3.92846 28366 ft 428 kts 342°
2026-04-21 21:38 53.41008 -3.95313 28372 ft 428 kts 342°
2026-04-21 21:38 53.46787 -3.97785 28378 ft 428 kts 342°
2026-04-21 21:39 53.52536 -4.00252 28386 ft 428 kts 342°
2026-04-21 21:39 53.58289 -4.02728 28398 ft 428 kts 342°
2026-04-21 21:40 53.64047 -4.05212 28394 ft 427 kts 342°
2026-04-21 21:40 53.69772 -4.07690 28386 ft 427 kts 342°
2026-04-21 21:41 53.75532 -4.10189 28399 ft 427 kts 342°
2026-04-21 21:41 53.81261 -4.12682 28395 ft 428 kts 342°
2026-04-21 21:42 53.87038 -4.15203 28410 ft 427 kts 343°
2026-04-21 21:42 53.92755 -4.17705 28415 ft 426 kts 342°
2026-04-21 21:43 53.98473 -4.20214 28419 ft 425 kts 342°
2026-04-21 21:43 54.04177 -4.22724 28409 ft 425 kts 342°
2026-04-21 21:44 54.09905 -4.25253 28420 ft 425 kts 342°
2026-04-21 21:44 54.15604 -4.27775 28410 ft 426 kts 343°
2026-04-21 21:45 54.21360 -4.30330 28410 ft 427 kts 343°
2026-04-21 21:45 54.27103 -4.32887 28414 ft 427 kts 343°
2026-04-21 21:46 54.32832 -4.35444 28418 ft 428 kts 343°
2026-04-21 21:46 54.38570 -4.38013 28423 ft 429 kts 343°
2026-04-21 21:47 54.44361 -4.40613 28433 ft 429 kts 344°
2026-04-21 21:47 54.50109 -4.43202 28449 ft 431 kts 344°
2026-04-21 21:48 54.55944 -4.45837 28440 ft 432 kts 344°
2026-04-21 21:48 54.61753 -4.48469 28449 ft 434 kts 344°
2026-04-21 21:49 54.67622 -4.51135 28447 ft 436 kts 344°
2026-04-21 21:49 54.73469 -4.53799 28445 ft 437 kts 344°
2026-04-21 21:50 54.79346 -4.56485 28445 ft 438 kts 344°
2026-04-21 21:50 54.85222 -4.59179 28449 ft 437 kts 344°
2026-04-21 21:51 54.91138 -4.61899 28454 ft 438 kts 344°
2026-04-21 21:51 54.97001 -4.64603 28450 ft 437 kts 344°
2026-04-21 21:52 55.02855 -4.67311 28436 ft 436 kts 343°
2026-04-21 21:52 55.08752 -4.70048 28444 ft 436 kts 343°
2026-04-21 21:53 55.14596 -4.72769 28445 ft 437 kts 343°
2026-04-21 21:53 55.20481 -4.75516 28454 ft 437 kts 344°
2026-04-21 21:54 55.26326 -4.78253 28477 ft 436 kts 344°
2026-04-21 21:54 55.32188 -4.81007 28474 ft 437 kts 345°
2026-04-21 21:55 55.38090 -4.83788 28484 ft 437 kts 345°
2026-04-21 21:55 55.43981 -4.86572 28488 ft 438 kts 345°
2026-04-21 21:56 55.49934 -4.89395 28498 ft 440 kts 346°
2026-04-21 21:56 55.55825 -4.92196 28497 ft 442 kts 346°
2026-04-21 21:57 55.61765 -4.95030 28501 ft 443 kts 346°
2026-04-21 21:57 55.67746 -4.97892 28510 ft 446 kts 346°
2026-04-21 21:58 55.73759 -5.00778 28510 ft 448 kts 346°
2026-04-21 21:58 55.79795 -5.03685 28500 ft 450 kts 346°
2026-04-21 21:59 55.85858 -5.06614 28489 ft 452 kts 346°
2026-04-21 21:59 55.91916 -5.09551 28482 ft 453 kts 346°
2026-04-21 22:00 55.98027 -5.12523 28480 ft 456 kts 346°
2026-04-21 22:00 56.04133 -5.15502 28481 ft 457 kts 346°
2026-04-21 22:01 56.10278 -5.18511 28486 ft 457 kts 346°
2026-04-21 22:01 56.16404 -5.21519 28487 ft 456 kts 346°
2026-04-21 22:02 56.22483 -5.24514 28488 ft 455 kts 346°
2026-04-21 22:02 56.28626 -5.27552 28484 ft 456 kts 346°
2026-04-21 22:03 56.34742 -5.30586 28486 ft 456 kts 346°
2026-04-21 22:03 56.40851 -5.33626 28482 ft 457 kts 346°
2026-04-21 22:04 56.46961 -5.36677 28487 ft 457 kts 346°
2026-04-21 22:04 56.53097 -5.39751 28494 ft 456 kts 346°
2026-04-21 22:05 56.59210 -5.42823 28496 ft 456 kts 347°
2026-04-21 22:05 56.65315 -5.45903 28489 ft 456 kts 347°
2026-04-21 22:06 56.71430 -5.48998 28484 ft 457 kts 347°
2026-04-21 22:06 56.77554 -5.52107 28485 ft 457 kts 347°
2026-04-21 22:07 56.83656 -5.55216 28492 ft 458 kts 347°
2026-04-21 22:07 56.89803 -5.58358 28490 ft 459 kts 347°
2026-04-21 22:08 56.95956 -5.61514 28489 ft 459 kts 347°
2026-04-21 22:08 57.02110 -5.64681 28448 ft 460 kts 347°
2026-04-21 22:08 57.05188 -5.66268 27986 ft 461 kts 346°
2026-04-21 22:09 57.08192 -5.67825 27431 ft 440 kts 346°
2026-04-21 22:09 57.11076 -5.69323 26906 ft 422 kts 346°
2026-04-21 22:09 57.13843 -5.70763 26370 ft 407 kts 346°
2026-04-21 22:09 57.16504 -5.72149 25845 ft 393 kts 346°
2026-04-21 22:10 57.19076 -5.73492 25341 ft 382 kts 346°
2026-04-21 22:10 57.21635 -5.74827 24839 ft 381 kts 347°
2026-04-21 22:10 57.24180 -5.76154 24330 ft 381 kts 346°
2026-04-21 22:10 57.26701 -5.77472 23830 ft 378 kts 347°
2026-04-21 22:11 57.29217 -5.78789 23333 ft 375 kts 347°
2026-04-21 22:11 57.31727 -5.80105 22835 ft 372 kts 346°
2026-04-21 22:11 57.34197 -5.81401 22347 ft 369 kts 346°
2026-04-21 22:11 57.36650 -5.82689 21862 ft 366 kts 346°
2026-04-21 22:12 57.39084 -5.83970 21378 ft 363 kts 346°
2026-04-21 22:12 57.41484 -5.85234 20902 ft 360 kts 346°
2026-04-21 22:12 57.43901 -5.86510 20419 ft 357 kts 346°
2026-04-21 22:12 57.46253 -5.87752 19958 ft 354 kts 346°
2026-04-21 22:13 57.48632 -5.89010 19484 ft 351 kts 346°
2026-04-21 22:13 57.50934 -5.90229 19037 ft 348 kts 346°
2026-04-21 22:13 57.53275 -5.91470 18575 ft 346 kts 346°
2026-04-21 22:13 57.55580 -5.92694 18122 ft 344 kts 346°
2026-04-21 22:14 57.57869 -5.93911 17666 ft 341 kts 346°
2026-04-21 22:14 57.60126 -5.95113 17226 ft 339 kts 346°
2026-04-21 22:14 57.62403 -5.96323 16328 ft 348 kts 346°
2026-04-21 22:14 57.64687 -5.97542 15874 ft 339 kts 346°
2026-04-21 22:15 57.66939 -5.98747 15361 ft 332 kts 346°
2026-04-21 22:15 57.69121 -5.99916 14930 ft 325 kts 346°
2026-04-21 22:15 57.71269 -6.01067 14495 ft 324 kts 346°
2026-04-21 22:15 57.73422 -6.02221 14069 ft 324 kts 346°
2026-04-21 22:16 57.75601 -6.03390 13638 ft 323 kts 346°
2026-04-21 22:16 57.77747 -6.04544 13203 ft 321 kts 346°
2026-04-21 22:16 57.79863 -6.05684 12783 ft 319 kts 346°
2026-04-21 22:16 57.81989 -6.06830 12366 ft 317 kts 346°
2026-04-21 22:17 57.84111 -6.07974 11941 ft 316 kts 346°
2026-04-21 22:17 57.86190 -6.09097 11524 ft 314 kts 346°
2026-04-21 22:17 57.88281 -6.10229 11106 ft 313 kts 346°
2026-04-21 22:17 57.90347 -6.11348 10691 ft 307 kts 346°
2026-04-21 22:18 57.92394 -6.12460 10289 ft 300 kts 346°
2026-04-21 22:18 57.94363 -6.13532 9901 ft 294 kts 346°
2026-04-21 22:18 57.96298 -6.14585 9511 ft 288 kts 346°
2026-04-21 22:18 57.98183 -6.15612 9135 ft 282 kts 346°
2026-04-21 22:19 58.00062 -6.16638 8766 ft 277 kts 346°
2026-04-21 22:19 58.01938 -6.17663 8389 ft 275 kts 346°
2026-04-21 22:19 58.03765 -6.18660 8031 ft 275 kts 347°
2026-04-21 22:19 58.05625 -6.19677 7657 ft 275 kts 347°
2026-04-21 22:20 58.07461 -6.20682 7303 ft 273 kts 347°
2026-04-21 22:20 58.09274 -6.21675 6935 ft 272 kts 347°
2026-04-21 22:20 58.11080 -6.22666 6590 ft 269 kts 347°
2026-04-21 22:20 58.12872 -6.23651 6218 ft 264 kts 347°
2026-04-21 22:21 58.14590 -6.24598 5891 ft 257 kts 347°
2026-04-21 22:21 58.16285 -6.25532 5545 ft 252 kts 348°
2026-04-21 22:21 58.17960 -6.26457 5218 ft 247 kts 348°
2026-04-21 22:21 58.19589 -6.27357 4896 ft 242 kts 348°
2026-04-21 22:22 58.21198 -6.28247 4573 ft 238 kts 348°
2026-04-21 22:22 58.22763 -6.29114 4264 ft 234 kts 348°
2026-04-21 22:22 58.24318 -6.29975 3950 ft 230 kts 349°
2026-04-21 22:22 58.25837 -6.30817 3646 ft 227 kts 349°
2026-04-21 22:23 58.27348 -6.31656 3316 ft 223 kts 349°
2026-04-21 22:23 58.28799 -6.32465 3053 ft 214 kts 350°
2026-04-21 22:23 58.30196 -6.33245 2775 ft 208 kts 350°
2026-04-21 22:23 58.31568 -6.34011 2504 ft 202 kts 351°
2026-04-21 22:24 58.32899 -6.34754 2243 ft 197 kts 351°
2026-04-21 22:24 58.34188 -6.35474 2020 ft 190 kts 351°
2026-04-21 22:24 58.35363 -6.36481 1994 ft 182 kts 321°
2026-04-21 22:24 58.35823 -6.38608 2007 ft 179 kts 266°
2026-04-21 22:25 58.35280 -6.40481 2006 ft 151 kts 203°
2026-04-21 22:25 58.34364 -6.40512 2026 ft 126 kts 137°
2026-04-21 22:25 58.33815 -6.39324 2027 ft 117 kts 120°
2026-04-21 22:25 58.33332 -6.38081 2006 ft 118 kts 121°
2026-04-21 22:26 58.32845 -6.36853 1996 ft 112 kts 121°
2026-04-21 22:26 58.32330 -6.35748 2003 ft 114 kts 132°
2026-04-21 22:26 58.31642 -6.34976 1993 ft 118 kts 148°
2026-04-21 22:26 58.30833 -6.34550 1987 ft 123 kts 161°
2026-04-21 22:27 58.29956 -6.34428 1964 ft 128 kts 171°
2026-04-21 22:27 58.29053 -6.34557 1716 ft 127 kts 174°
2026-04-21 22:27 58.28167 -6.34573 1527 ft 126 kts 166°
2026-04-21 22:27 58.27311 -6.34355 1295 ft 123 kts 164°
2026-04-21 22:28 58.26464 -6.34142 1023 ft 120 kts 165°
2026-04-21 22:28 58.25641 -6.33913 855 ft 122 kts 166°
2026-04-21 22:28 58.24782 -6.33739 567 ft 124 kts 169°
2026-04-21 22:28 58.23941 -6.33563 358 ft 122 kts 169°
2026-04-21 22:29 58.23099 -6.33400 209 ft 122 kts 171°
2026-04-21 22:29 58.22245 -6.33240 57 ft 121 kts 171°
2026-04-21 22:29 58.21480 -6.33115 16 ft 98 kts 171°
2026-04-21 22:29 58.20918 -6.32979 17 ft 41 kts 175°
2026-04-21 22:30 58.20695 -6.32939 18 ft 18 kts 173°
2026-04-21 22:30 58.20573 -6.32918 19 ft 9 kts 187°
2026-04-21 22:30 58.20565 -6.32924 19 ft 0 kts 233°
2026-04-21 22:31 58.20565 -6.32936 20 ft 1 kts 307°
2026-04-21 22:31 58.20584 -6.32989 22 ft 7 kts 264°
2026-04-21 22:31 58.20579 -6.33096 26 ft 8 kts 282°
2026-04-21 22:31 58.20619 -6.33213 30 ft 13 kts 325°
2026-04-21 22:32 58.20723 -6.33255 29 ft 17 kts 354°
2026-04-21 22:32 58.20860 -6.33280 27 ft 17 kts
2026-04-21 22:32 58.20909 -6.33060 19 ft 23 kts 84°
2026-04-21 22:32 58.20933 -6.32716 16 ft 27 kts 83°
2026-04-21 22:33 58.20989 -6.32540 18 ft 15 kts 15°
2026-04-21 22:33 58.21113 -6.32551 18 ft 20 kts 355°
2026-04-21 22:33 58.21267 -6.32574 17 ft 24 kts 356°
2026-04-21 22:33 58.21366 -6.32556 18 ft 7 kts 33°
2026-04-21 22:34 58.21406 -6.32501 19 ft 8 kts 52°
2026-04-21 22:34 58.21406 -6.32457 20 ft 0 kts 148°
2026-04-21 22:34 58.21364 -6.32470 20 ft 11 kts 191°
2026-04-21 22:34 58.21335 -6.32509 19 ft 0 kts 271°
2026-04-21 22:35 58.21335 -6.32511 19 ft 0 kts 271°